Time,TemperatureF,DewpointF,PressureIn,WindDirection,WindDirectionDegrees,WindSpeedMPH,WindSpeedGustMPH,Humidity,HourlyPrecipIn,Conditions,Clouds,dailyrainin,SoftwareType,DateUTC
2013-08-12 00:02:00,72.9,61.1,30.07,West,264,3.6,3.6,66,0.00,,CLR,0.00,VWS V14.01,2013-08-12 05:02:00,
2013-08-12 00:08:00,72.9,61.1,30.07,SSW,203,2.7,4.9,66,0.00,,CLR,0.00,VWS V14.01,2013-08-12 05:08:00,
2013-08-12 00:13:00,72.7,60.9,30.07,South,176,5.4,5.4,66,0.00,,CLR,0.00,VWS V14.01,2013-08-12 05:13:00,
2013-08-12 00:18:00,72.7,60.9,30.07,South,169,2.2,4.0,66,0.00,,CLR,0.00,VWS V14.01,2013-08-12 05:18:00,
2013-08-12 00:23:00,72.9,61.1,30.07,SW,225,3.6,4.0,66,0.00,,CLR,0.00,VWS V14.01,2013-08-12 05:23:00,
2013-08-12 00:28:00,72.7,60.9,30.07,SSW,203,2.2,5.4,66,0.00,,CLR,0.00,VWS V14.01,2013-08-12 05:28:00,
2013-08-12 00:33:00,72.7,60.9,30.07,SSW,193,2.7,4.0,66,0.00,,CLR,0.00,VWS V14.01,2013-08-12 05:33:00,
2013-08-12 00:38:00,72.7,60.9,30.07,South,189,0.0,4.5,66,0.00,,CLR,0.00,VWS V14.01,2013-08-12 05:38:00,
2013-08-12 00:43:00,72.7,60.9,30.07,South,181,2.7,5.4,66,0.00,,CLR,0.00,VWS V14.01,2013-08-12 05:43:00,
2013-08-12 00:48:00,72.9,61.1,30.07,South,173,2.2,3.6,66,0.00,,CLR,0.00,VWS V14.01,2013-08-12 05:48:00,
2013-08-12 00:53:00,72.7,60.9,30.07,SSE,168,0.0,4.0,66,0.00,,CLR,0.00,VWS V14.01,2013-08-12 05:53:00,
2013-08-12 00:59:00,72.7,60.9,30.07,SSW,209,2.7,6.3,66,0.00,,CLR,0.00,VWS V14.01,2013-08-12 05:59:00,
2013-08-12 01:04:00,72.7,60.9,30.07,SSW,195,0.0,3.6,66,0.00,,CLR,0.00,VWS V14.01,2013-08-12 06:04:00,
2013-08-12 01:09:00,72.7,60.9,30.07,SSW,210,2.7,4.0,66,0.00,,CLR,0.00,VWS V14.01,2013-08-12 06:09:00,
2013-08-12 01:14:00,72.5,60.7,30.07,SSW,205,3.1,4.0,66,0.00,,CLR,0.00,VWS V14.01,2013-08-12 06:14:00,
2013-08-12 01:19:00,72.5,60.7,30.07,SW,223,3.1,6.3,66,0.00,,CLR,0.00,VWS V14.01,2013-08-12 06:19:00,
2013-08-12 01:24:00,72.3,60.5,30.07,SSE,164,2.7,4.0,66,0.00,,CLR,0.00,VWS V14.01,2013-08-12 06:24:00,
2013-08-12 01:29:00,72.1,60.4,30.07,SE,146,4.9,7.2,66,0.00,,CLR,0.00,VWS V14.01,2013-08-12 06:29:00,
2013-08-12 01:34:00,72.0,60.2,30.07,SSW,192,4.0,4.0,66,0.00,,CLR,0.00,VWS V14.01,2013-08-12 06:34:00,
2013-08-12 01:39:00,72.0,60.2,30.07,South,184,2.2,8.1,66,0.00,,CLR,0.00,VWS V14.01,2013-08-12 06:39:00,
2013-08-12 01:44:00,71.8,60.0,30.07,South,175,0.0,5.8,66,0.00,,CLR,0.00,VWS V14.01,2013-08-12 06:44:00,
2013-08-12 01:49:00,71.6,59.9,30.07,SW,222,0.0,0.0,66,0.00,,CLR,0.00,VWS V14.01,2013-08-12 06:49:00,
2013-08-12 01:54:00,71.6,59.9,30.07,South,184,2.2,3.1,66,0.00,,CLR,0.00,VWS V14.01,2013-08-12 06:54:00,
2013-08-12 01:59:00,71.4,59.7,30.07,South,171,0.0,4.9,66,0.00,,CLR,0.00,VWS V14.01,2013-08-12 06:59:00,
2013-08-12 02:05:00,71.4,59.7,30.04,SSW,200,0.0,4.0,66,0.00,,CLR,0.00,VWS V14.01,2013-08-12 07:05:00,
2013-08-12 02:10:00,71.2,59.5,30.04,SSW,195,2.7,4.0,66,0.00,,CLR,0.00,VWS V14.01,2013-08-12 07:10:00,
2013-08-12 02:15:00,71.2,59.5,30.04,South,191,2.7,4.0,66,0.00,,CLR,0.00,VWS V14.01,2013-08-12 07:15:00,
2013-08-12 02:20:00,71.1,59.3,30.04,SW,218,0.0,3.6,66,0.00,,CLR,0.00,VWS V14.01,2013-08-12 07:20:00,
2013-08-12 02:25:00,71.1,59.3,30.04,SSW,198,0.0,3.6,66,0.00,,CLR,0.00,VWS V14.01,2013-08-12 07:25:00,
2013-08-12 02:30:00,70.9,59.2,30.04,South,174,0.0,4.0,66,0.00,,CLR,0.00,VWS V14.01,2013-08-12 07:30:00,
2013-08-12 02:35:00,70.9,59.2,30.04,SE,142,2.7,6.3,66,0.00,,CLR,0.00,VWS V14.01,2013-08-12 07:35:00,
2013-08-12 02:40:00,70.9,59.2,30.04,South,189,4.0,4.0,66,0.00,,CLR,0.00,VWS V14.01,2013-08-12 07:40:00,
2013-08-12 02:45:00,70.9,59.2,30.04,SSE,160,2.7,4.0,66,0.00,,CLR,0.00,VWS V14.01,2013-08-12 07:45:00,
2013-08-12 02:50:00,70.9,59.2,30.04,South,174,0.0,3.1,66,0.00,,CLR,0.00,VWS V14.01,2013-08-12 07:50:00,
2013-08-12 02:55:00,70.9,59.2,30.04,SSW,209,2.7,3.6,66,0.00,,CLR,0.00,VWS V14.01,2013-08-12 07:55:00,
2013-08-12 03:00:00,70.7,59.0,30.04,South,185,0.0,4.0,66,0.00,,CLR,0.00,VWS V14.01,2013-08-12 08:00:00,
2013-08-12 03:05:00,70.7,59.0,30.04,SSW,197,0.0,0.0,66,0.00,,CLR,0.00,VWS V14.01,2013-08-12 08:05:00,
2013-08-12 03:10:00,70.7,59.0,30.04,SSE,158,3.6,3.6,66,0.00,,CLR,0.00,VWS V14.01,2013-08-12 08:10:00,
2013-08-12 03:15:00,70.5,58.8,30.04,SE,145,0.0,3.6,66,0.00,,CLR,0.00,VWS V14.01,2013-08-12 08:15:00,
2013-08-12 03:20:00,70.3,58.7,30.04,SSW,212,0.0,0.0,66,0.00,,CLR,0.00,VWS V14.01,2013-08-12 08:20:00,
2013-08-12 03:25:00,70.3,58.7,30.04,South,170,0.0,0.0,66,0.00,,CLR,0.00,VWS V14.01,2013-08-12 08:25:00,
2013-08-12 03:30:00,70.2,58.5,30.04,SW,216,0.0,0.0,66,0.00,,CLR,0.00,VWS V14.01,2013-08-12 08:30:00,
2013-08-12 03:35:00,70.2,58.5,30.04,SSE,158,0.0,0.0,66,0.00,,CLR,0.00,VWS V14.01,2013-08-12 08:35:00,
2013-08-12 03:40:00,70.0,58.3,30.04,SSW,203,0.0,0.0,66,0.00,,CLR,0.00,VWS V14.01,2013-08-12 08:40:00,
2013-08-12 03:45:00,69.8,58.2,30.04,SW,216,0.0,0.0,66,0.00,,CLR,0.00,VWS V14.01,2013-08-12 08:45:00,
2013-08-12 03:50:00,69.8,58.2,30.04,SW,216,0.0,0.0,66,0.00,,CLR,0.00,VWS V14.01,2013-08-12 08:50:00,
2013-08-12 03:55:00,69.6,59.4,30.04,SW,217,0.0,3.1,70,0.00,,CLR,0.00,VWS V14.01,2013-08-12 08:55:00,
2013-08-12 04:00:00,69.4,59.2,30.04,SSW,192,0.0,0.0,70,0.00,,CLR,0.00,VWS V14.01,2013-08-12 09:00:00,
2013-08-12 04:05:00,69.4,59.2,30.04,SW,216,0.0,0.0,70,0.00,,CLR,0.00,VWS V14.01,2013-08-12 09:05:00,
2013-08-12 04:10:00,69.3,59.1,30.04,South,172,4.9,4.9,70,0.00,,CLR,0.00,VWS V14.01,2013-08-12 09:10:00,
2013-08-12 04:15:00,69.3,59.1,30.04,SW,217,0.0,4.9,70,0.00,,CLR,0.00,VWS V14.01,2013-08-12 09:15:00,
2013-08-12 04:20:00,69.1,58.9,30.04,SW,217,0.0,0.0,70,0.00,,CLR,0.00,VWS V14.01,2013-08-12 09:20:00,
2013-08-12 04:25:00,69.1,58.9,30.04,SW,217,0.0,0.0,70,0.00,,CLR,0.00,VWS V14.01,2013-08-12 09:25:00,
2013-08-12 04:30:00,69.1,58.9,30.04,SE,146,0.0,0.0,70,0.00,,CLR,0.00,VWS V14.01,2013-08-12 09:30:00,
2013-08-12 04:35:00,68.9,58.7,30.04,South,184,0.0,0.0,70,0.00,,CLR,0.00,VWS V14.01,2013-08-12 09:35:00,
2013-08-12 04:40:00,68.9,58.7,30.04,SSW,206,0.0,0.0,70,0.00,,CLR,0.00,VWS V14.01,2013-08-12 09:40:00,
2013-08-12 04:45:00,68.9,58.7,30.04,SSW,206,0.0,0.0,70,0.00,,CLR,0.00,VWS V14.01,2013-08-12 09:45:00,
2013-08-12 04:50:00,68.7,58.5,30.04,SW,215,0.0,0.0,70,0.00,,CLR,0.00,VWS V14.01,2013-08-12 09:50:00,
2013-08-12 04:55:00,68.7,58.5,30.04,South,186,0.0,0.0,70,0.00,,CLR,0.00,VWS V14.01,2013-08-12 09:55:00,
2013-08-12 05:00:00,68.5,58.4,30.04,SW,235,0.0,0.0,70,0.00,,CLR,0.00,VWS V14.01,2013-08-12 10:00:00,
2013-08-12 05:05:00,68.4,58.2,30.04,SW,229,0.0,0.0,70,0.00,,CLR,0.00,VWS V14.01,2013-08-12 10:05:00,
2013-08-12 05:10:00,68.4,58.2,30.04,SW,229,0.0,0.0,70,0.00,,CLR,0.00,VWS V14.01,2013-08-12 10:10:00,
2013-08-12 05:15:00,68.2,58.0,30.04,SW,229,0.0,0.0,70,0.00,,CLR,0.00,VWS V14.01,2013-08-12 10:15:00,
2013-08-12 05:20:00,68.2,58.0,30.04,SW,229,0.0,0.0,70,0.00,,CLR,0.00,VWS V14.01,2013-08-12 10:20:00,
2013-08-12 05:25:00,68.0,57.9,30.04,SW,229,0.0,0.0,70,0.00,,CLR,0.00,VWS V14.01,2013-08-12 10:25:00,
2013-08-12 05:30:00,67.8,57.7,30.04,SW,229,0.0,0.0,70,0.00,,CLR,0.00,VWS V14.01,2013-08-12 10:30:00,
2013-08-12 05:35:00,67.6,57.5,30.04,WSW,243,0.0,0.0,70,0.00,,CLR,0.00,VWS V14.01,2013-08-12 10:35:00,
2013-08-12 05:40:00,67.6,57.5,30.04,SW,225,0.0,0.0,70,0.00,,CLR,0.00,VWS V14.01,2013-08-12 10:40:00,
2013-08-12 05:45:00,67.6,57.5,30.04,SW,224,0.0,0.0,70,0.00,,CLR,0.00,VWS V14.01,2013-08-12 10:45:00,
2013-08-12 05:50:00,67.6,57.5,30.01,SW,224,0.0,0.0,70,0.00,,CLR,0.00,VWS V14.01,2013-08-12 10:50:00,
2013-08-12 05:55:00,67.5,57.3,30.01,SW,224,0.0,0.0,70,0.00,,CLR,0.00,VWS V14.01,2013-08-12 10:55:00,
2013-08-12 06:00:00,67.5,60.0,30.01,South,189,0.0,0.0,77,0.00,,CLR,0.00,VWS V14.01,2013-08-12 11:00:00,
2013-08-12 06:05:00,67.5,60.0,30.01,South,175,0.0,0.0,77,0.00,,CLR,0.00,VWS V14.01,2013-08-12 11:05:00,
2013-08-12 06:10:00,67.5,60.0,30.01,South,175,0.0,0.0,77,0.00,,CLR,0.00,VWS V14.01,2013-08-12 11:10:00,
2013-08-12 06:15:00,67.5,60.0,30.01,South,175,0.0,0.0,77,0.00,,CLR,0.00,VWS V14.01,2013-08-12 11:15:00,
2013-08-12 06:20:00,67.3,59.8,30.04,South,175,0.0,0.0,77,0.00,,CLR,0.00,VWS V14.01,2013-08-12 11:20:00,
2013-08-12 06:25:00,67.3,59.8,30.04,South,175,0.0,0.0,77,0.00,,CLR,0.00,VWS V14.01,2013-08-12 11:25:00,
2013-08-12 06:30:00,67.3,59.8,30.04,South,175,0.0,0.0,77,0.00,,CLR,0.00,VWS V14.01,2013-08-12 11:30:00,
2013-08-12 06:35:00,67.3,59.8,30.01,South,175,0.0,0.0,77,0.00,,CLR,0.00,VWS V14.01,2013-08-12 11:35:00,
2013-08-12 06:41:00,67.3,59.8,30.01,South,175,0.0,0.0,77,0.00,,CLR,0.00,VWS V14.01,2013-08-12 11:41:00,
2013-08-12 06:46:00,67.5,61.3,30.01,South,177,0.0,0.0,80,0.00,,CLR,0.00,VWS V14.01,2013-08-12 11:46:00,
2013-08-12 06:51:00,67.6,61.4,30.01,SW,216,0.0,2.2,80,0.00,,CLR,0.00,VWS V14.01,2013-08-12 11:51:00,
2013-08-12 06:56:00,68.0,60.5,30.01,SSW,200,0.0,0.0,77,0.00,,CLR,0.00,VWS V14.01,2013-08-12 11:56:00,
2013-08-12 07:01:00,68.2,60.7,30.01,SSW,204,0.0,0.0,77,0.00,,CLR,0.00,VWS V14.01,2013-08-12 12:01:00,
2013-08-12 07:06:00,68.4,60.9,30.01,South,169,0.0,0.0,77,0.00,,CLR,0.00,VWS V14.01,2013-08-12 12:06:00,
2013-08-12 07:11:00,68.5,61.0,30.01,SSW,204,0.0,0.0,77,0.00,,CLR,0.00,VWS V14.01,2013-08-12 12:11:00,
2013-08-12 07:16:00,68.7,61.2,29.98,SSW,200,0.0,0.0,77,0.00,,CLR,0.00,VWS V14.01,2013-08-12 12:16:00,
2013-08-12 07:21:00,69.1,61.6,29.98,South,180,0.0,0.0,77,0.00,,CLR,0.00,VWS V14.01,2013-08-12 12:21:00,
2013-08-12 07:26:00,69.3,61.8,29.98,South,190,2.2,4.0,77,0.00,,CLR,0.00,VWS V14.01,2013-08-12 12:26:00,
2013-08-12 07:32:00,69.6,62.1,30.01,SSW,206,0.0,2.2,77,0.00,,CLR,0.00,VWS V14.01,2013-08-12 12:32:00,
2013-08-12 07:37:00,69.8,62.3,30.01,SW,222,2.2,4.0,77,0.00,,CLR,0.00,VWS V14.01,2013-08-12 12:37:00,
2013-08-12 07:42:00,70.2,58.5,30.01,SSW,200,0.0,0.0,66,0.00,,CLR,0.00,VWS V14.01,2013-08-12 12:42:00,
2013-08-12 07:47:00,70.3,58.7,30.01,South,185,0.0,0.0,66,0.00,,CLR,0.00,VWS V14.01,2013-08-12 12:47:00,
2013-08-12 07:52:00,70.7,59.0,30.01,SSW,202,0.0,0.0,66,0.00,,CLR,0.00,VWS V14.01,2013-08-12 12:52:00,
2013-08-12 07:57:00,70.9,59.2,30.01,SW,224,0.0,3.1,66,0.00,,CLR,0.00,VWS V14.01,2013-08-12 12:57:00,
2013-08-12 08:02:00,71.2,59.5,30.01,South,169,2.2,4.0,66,0.00,,CLR,0.00,VWS V14.01,2013-08-12 13:02:00,
2013-08-12 08:07:00,71.6,59.9,30.01,SSW,210,0.0,4.0,66,0.00,,CLR,0.00,VWS V14.01,2013-08-12 13:07:00,
2013-08-12 08:12:00,71.8,60.0,30.01,South,172,2.7,7.6,66,0.00,,CLR,0.00,VWS V14.01,2013-08-12 13:12:00,
2013-08-12 08:17:00,72.1,60.4,30.01,SSW,202,4.9,5.4,66,0.00,,CLR,0.00,VWS V14.01,2013-08-12 13:17:00,
2013-08-12 08:22:00,72.5,60.7,30.01,SE,139,2.7,3.6,66,0.00,,CLR,0.00,VWS V14.01,2013-08-12 13:22:00,
2013-08-12 08:27:00,73.2,61.4,30.01,SSW,203,0.0,3.6,66,0.00,,CLR,0.00,VWS V14.01,2013-08-12 13:27:00,
2013-08-12 08:32:00,73.8,60.4,30.01,SW,214,0.0,3.1,63,0.00,,CLR,0.00,VWS V14.01,2013-08-12 13:32:00,
2013-08-12 08:37:00,74.5,61.1,30.01,South,176,0.0,4.0,63,0.00,,CLR,0.00,VWS V14.01,2013-08-12 13:37:00,
2013-08-12 08:42:00,75.2,61.8,30.01,SE,128,4.0,4.0,63,0.00,,CLR,0.00,VWS V14.01,2013-08-12 13:42:00,
2013-08-12 08:48:00,75.9,62.4,30.01,SSW,192,0.0,0.0,63,0.00,,CLR,0.00,VWS V14.01,2013-08-12 13:48:00,
2013-08-12 08:53:00,76.3,62.8,30.01,SSW,210,4.9,4.9,63,0.00,,CLR,0.00,VWS V14.01,2013-08-12 13:53:00,
2013-08-12 08:58:00,76.6,63.1,30.01,South,187,0.0,4.9,63,0.00,,CLR,0.00,VWS V14.01,2013-08-12 13:58:00,
2013-08-12 09:03:00,77.0,63.5,30.01,SW,216,2.2,3.1,63,0.00,,CLR,0.00,VWS V14.01,2013-08-12 14:03:00,
2013-08-12 09:08:00,77.2,63.6,30.01,SSE,166,0.0,4.0,63,0.00,,CLR,0.00,VWS V14.01,2013-08-12 14:08:00,
2013-08-12 09:13:00,77.5,64.0,30.01,South,174,0.0,2.2,63,0.00,,CLR,0.00,VWS V14.01,2013-08-12 14:13:00,
2013-08-12 09:18:00,78.1,64.5,30.01,SW,221,0.0,3.6,63,0.00,,CLR,0.00,VWS V14.01,2013-08-12 14:18:00,
2013-08-12 09:23:00,79.0,63.7,30.01,SSW,196,0.0,0.0,60,0.00,,CLR,0.00,VWS V14.01,2013-08-12 14:23:00,
2013-08-12 09:28:00,79.2,63.8,30.01,SW,218,3.6,3.6,60,0.00,,CLR,0.00,VWS V14.01,2013-08-12 14:28:00,
2013-08-12 09:33:00,79.3,64.0,30.01,WNW,286,2.7,4.9,60,0.00,,CLR,0.00,VWS V14.01,2013-08-12 14:33:00,
2013-08-12 09:38:00,79.3,64.0,30.01,WSW,246,0.0,4.9,60,0.00,,CLR,0.00,VWS V14.01,2013-08-12 14:38:00,
2013-08-12 09:44:00,79.7,64.4,30.01,East,89,0.0,4.0,60,0.00,,CLR,0.00,VWS V14.01,2013-08-12 14:44:00,
2013-08-12 09:49:00,80.1,64.7,30.01,SSE,167,0.0,4.0,60,0.00,,CLR,0.00,VWS V14.01,2013-08-12 14:49:00,
2013-08-12 09:54:00,80.6,65.2,30.01,SW,232,2.2,2.2,60,0.00,,CLR,0.00,VWS V14.01,2013-08-12 14:54:00,
2013-08-12 09:59:00,80.6,65.2,30.01,ESE,115,3.1,4.0,60,0.00,,CLR,0.00,VWS V14.01,2013-08-12 14:59:00,
2013-08-12 10:04:00,80.2,64.9,30.01,NW,310,0.0,4.0,60,0.00,,CLR,0.00,VWS V14.01,2013-08-12 15:04:00,
2013-08-12 10:09:00,80.2,64.9,30.01,SSW,197,0.0,5.4,60,0.00,,CLR,0.00,VWS V14.01,2013-08-12 15:09:00,
2013-08-12 10:14:00,80.6,65.2,30.01,SW,216,3.6,4.0,60,0.00,,CLR,0.00,VWS V14.01,2013-08-12 15:14:00,
2013-08-12 10:19:00,80.8,65.4,30.01,SSE,166,0.0,3.6,60,0.00,,CLR,0.00,VWS V14.01,2013-08-12 15:19:00,
2013-08-12 10:24:00,81.0,65.5,30.01,SSW,203,0.0,0.0,60,0.00,,CLR,0.00,VWS V14.01,2013-08-12 15:24:00,
2013-08-12 10:29:00,81.7,66.2,30.01,SE,140,2.2,4.9,60,0.00,,CLR,0.00,VWS V14.01,2013-08-12 15:29:00,
2013-08-12 10:35:00,82.2,66.7,30.01,WNW,286,2.2,4.9,60,0.00,,CLR,0.00,VWS V14.01,2013-08-12 15:35:00,
2013-08-12 10:40:00,81.9,66.4,30.01,SW,223,0.0,4.0,60,0.00,,CLR,0.00,VWS V14.01,2013-08-12 15:40:00,
2013-08-12 10:45:00,81.7,66.2,30.01,SSW,211,2.7,4.0,60,0.00,,CLR,0.00,VWS V14.01,2013-08-12 15:45:00,
2013-08-12 10:50:00,81.5,66.1,30.01,SSW,213,0.0,4.0,60,0.00,,CLR,0.00,VWS V14.01,2013-08-12 15:50:00,
2013-08-12 10:55:00,81.3,65.9,30.01,WNW,283,3.1,5.8,60,0.00,,CLR,0.00,VWS V14.01,2013-08-12 15:55:00,
2013-08-12 11:00:00,81.5,66.1,30.01,SSW,203,2.7,4.0,60,0.00,,CLR,0.00,VWS V14.01,2013-08-12 16:00:00,
2013-08-12 11:05:00,81.5,66.1,30.01,WSW,258,0.0,0.0,60,0.00,,CLR,0.00,VWS V14.01,2013-08-12 16:05:00,
2013-08-12 11:10:00,81.7,66.2,30.01,NW,309,3.1,3.1,60,0.00,,CLR,0.00,VWS V14.01,2013-08-12 16:10:00,
2013-08-12 11:15:00,82.0,66.6,30.01,SSE,159,2.2,4.0,60,0.00,,CLR,0.00,VWS V14.01,2013-08-12 16:15:00,
2013-08-12 11:20:00,82.2,66.7,30.01,SSW,207,2.7,3.6,60,0.00,,CLR,0.00,VWS V14.01,2013-08-12 16:20:00,
2013-08-12 11:25:00,82.6,65.3,30.01,WSW,245,0.0,0.0,56,0.00,,CLR,0.00,VWS V14.01,2013-08-12 16:25:00,
2013-08-12 11:30:00,82.6,65.3,30.01,WSW,245,2.7,3.1,56,0.00,,CLR,0.00,VWS V14.01,2013-08-12 16:30:00,
2013-08-12 11:36:00,82.9,65.7,30.01,NNW,334,0.0,2.7,56,0.00,,CLR,0.00,VWS V14.01,2013-08-12 16:36:00,
2013-08-12 11:41:00,83.3,66.0,30.01,SSE,161,3.6,4.9,56,0.00,,CLR,0.00,VWS V14.01,2013-08-12 16:41:00,
2013-08-12 11:46:00,83.1,65.8,30.01,WSW,252,0.0,2.7,56,0.00,,CLR,0.00,VWS V14.01,2013-08-12 16:46:00,
2013-08-12 11:51:00,82.9,65.7,30.01,North,357,0.0,0.0,56,0.00,,CLR,0.00,VWS V14.01,2013-08-12 16:51:00,
2013-08-12 11:56:00,83.3,66.0,30.01,South,186,2.7,4.9,56,0.00,,CLR,0.00,VWS V14.01,2013-08-12 16:56:00,
2013-08-12 12:01:00,82.9,65.7,30.01,SW,232,0.0,0.0,56,0.00,,CLR,0.00,VWS V14.01,2013-08-12 17:01:00,
2013-08-12 12:06:00,82.9,65.7,30.01,NW,307,0.0,0.0,56,0.00,,SCT028,0.00,VWS V14.01,2013-08-12 17:06:00,
2013-08-12 12:11:00,83.1,65.8,30.01,WNW,292,0.0,4.9,56,0.00,,SCT028,0.00,VWS V14.01,2013-08-12 17:11:00,
2013-08-12 12:16:00,83.5,66.2,30.01,SW,235,2.7,3.6,56,0.00,,SCT028,0.00,VWS V14.01,2013-08-12 17:16:00,
2013-08-12 12:21:00,83.7,66.3,30.01,NW,324,0.0,0.0,56,0.00,,SCT028,0.00,VWS V14.01,2013-08-12 17:21:00,
2013-08-12 12:27:00,83.7,66.3,30.01,ESE,119,0.0,3.1,56,0.00,,SCT028,0.00,VWS V14.01,2013-08-12 17:27:00,
2013-08-12 12:32:00,83.8,66.5,30.01,WNW,297,0.0,0.0,56,0.00,,SCT028,0.00,VWS V14.01,2013-08-12 17:32:00,
2013-08-12 12:37:00,84.2,66.8,30.01,North,357,4.0,4.0,56,0.00,,SCT028,0.00,VWS V14.01,2013-08-12 17:37:00,
2013-08-12 12:42:00,84.2,66.8,30.01,WSW,240,0.0,3.6,56,0.00,,SCT029,0.00,VWS V14.01,2013-08-12 17:42:00,
2013-08-12 12:47:00,84.0,66.7,30.01,South,170,2.7,4.0,56,0.00,,SCT029,0.00,VWS V14.01,2013-08-12 17:47:00,
2013-08-12 12:52:00,83.8,66.5,30.01,South,185,0.0,2.7,56,0.00,,SCT029,0.00,VWS V14.01,2013-08-12 17:52:00,
2013-08-12 12:57:00,84.0,66.7,30.01,WSW,239,2.2,6.3,56,0.00,,SCT029,0.00,VWS V14.01,2013-08-12 17:57:00,
2013-08-12 13:02:00,84.2,66.8,29.98,WNW,282,0.0,3.1,56,0.00,,SCT035,0.00,VWS V14.01,2013-08-12 18:02:00,
2013-08-12 13:07:00,84.2,66.8,29.98,WNW,293,4.0,4.9,56,0.00,,SCT035,0.00,VWS V14.01,2013-08-12 18:07:00,
2013-08-12 13:12:00,84.0,66.7,29.98,WSW,249,6.3,8.3,56,0.00,,SCT035,0.00,VWS V14.01,2013-08-12 18:12:00,
2013-08-12 13:17:00,84.0,66.7,29.98,West,263,2.2,4.9,56,0.00,,SCT035,0.00,VWS V14.01,2013-08-12 18:17:00,
2013-08-12 13:22:00,84.0,66.7,29.98,NNE,19,0.0,0.0,56,0.00,,SCT035,0.00,VWS V14.01,2013-08-12 18:22:00,
2013-08-12 13:27:00,84.2,66.8,29.98,NW,324,0.0,4.9,56,0.00,,SCT035,0.00,VWS V14.01,2013-08-12 18:27:00,
2013-08-12 13:32:00,84.2,66.8,29.98,West,264,0.0,5.4,56,0.00,,SCT035,0.00,VWS V14.01,2013-08-12 18:32:00,
2013-08-12 13:37:00,84.0,66.7,29.98,SW,233,0.0,0.0,56,0.00,,SCT035,0.00,VWS V14.01,2013-08-12 18:37:00,
2013-08-12 13:42:00,83.7,66.3,29.98,SE,139,0.0,2.7,56,0.00,,CLR,0.00,VWS V14.01,2013-08-12 18:42:00,
2013-08-12 13:47:00,83.3,66.0,29.98,SSW,196,0.0,0.0,56,0.00,,CLR,0.00,VWS V14.01,2013-08-12 18:47:00,
2013-08-12 13:52:00,83.3,66.0,29.98,WSW,254,4.5,4.5,56,0.00,,CLR,0.00,VWS V14.01,2013-08-12 18:52:00,
2013-08-12 13:58:00,83.1,65.8,29.98,WNW,283,3.1,3.1,56,0.00,,CLR,0.00,VWS V14.01,2013-08-12 18:58:00,
2013-08-12 14:03:00,83.1,65.8,29.98,SSW,203,0.0,3.6,56,0.00,,CLR,0.00,VWS V14.01,2013-08-12 19:03:00,
2013-08-12 14:08:00,83.1,65.8,29.98,NW,310,3.1,6.3,56,0.00,,CLR,0.00,VWS V14.01,2013-08-12 19:08:00,
2013-08-12 14:13:00,82.9,65.7,29.98,NNW,333,0.0,2.7,56,0.00,,CLR,0.00,VWS V14.01,2013-08-12 19:13:00,
2013-08-12 14:18:00,82.9,65.7,29.98,WNW,282,2.7,6.3,56,0.00,,CLR,0.00,VWS V14.01,2013-08-12 19:18:00,
2013-08-12 14:23:00,82.9,65.7,29.98,WSW,239,0.0,5.8,56,0.00,,CLR,0.00,VWS V14.01,2013-08-12 19:23:00,
2013-08-12 14:28:00,82.6,65.3,29.98,West,259,3.1,6.3,56,0.00,,CLR,0.00,VWS V14.01,2013-08-12 19:28:00,
2013-08-12 14:33:00,82.2,66.7,29.98,SSW,206,0.0,3.6,60,0.00,,CLR,0.00,VWS V14.01,2013-08-12 19:33:00,
2013-08-12 14:38:00,81.9,66.4,29.98,NW,311,4.9,4.9,60,0.00,,CLR,0.00,VWS V14.01,2013-08-12 19:38:00,
2013-08-12 14:43:00,81.9,66.4,29.98,ENE,72,0.0,4.0,60,0.00,,SCT026,0.00,VWS V14.01,2013-08-12 19:43:00,
2013-08-12 14:48:00,81.7,66.2,29.98,WNW,290,0.0,6.7,60,0.00,,SCT026,0.00,VWS V14.01,2013-08-12 19:48:00,
2013-08-12 14:53:00,81.9,66.4,29.98,SW,229,3.6,4.0,60,0.00,,SCT026,0.00,VWS V14.01,2013-08-12 19:53:00,
2013-08-12 14:58:00,81.9,66.4,29.98,SW,236,2.2,2.2,60,0.00,,SCT026,0.00,VWS V14.01,2013-08-12 19:58:00,
2013-08-12 15:03:00,81.7,66.2,29.98,NW,304,0.0,0.0,60,0.00,,CLR,0.00,VWS V14.01,2013-08-12 20:03:00,
2013-08-12 15:08:00,81.9,66.4,29.98,NW,319,0.0,0.0,60,0.00,,CLR,0.00,VWS V14.01,2013-08-12 20:08:00,
2013-08-12 15:14:00,82.2,66.7,29.98,NNW,339,0.0,4.9,60,0.00,,CLR,0.00,VWS V14.01,2013-08-12 20:14:00,
2013-08-12 15:19:00,82.2,66.7,29.98,West,271,2.2,3.6,60,0.00,,CLR,0.00,VWS V14.01,2013-08-12 20:19:00,
2013-08-12 15:24:00,82.0,66.6,29.98,West,272,6.3,6.3,60,0.00,,CLR,0.00,VWS V14.01,2013-08-12 20:24:00,
2013-08-12 15:29:00,81.9,66.4,29.98,North,0,3.6,6.3,60,0.00,,CLR,0.00,VWS V14.01,2013-08-12 20:29:00,
2013-08-12 15:34:00,81.3,65.9,29.98,North,0,2.7,4.9,60,0.00,,CLR,0.00,VWS V14.01,2013-08-12 20:34:00,
2013-08-12 15:39:00,81.0,65.5,29.98,NE,45,0.0,5.8,60,0.00,,CLR,0.00,VWS V14.01,2013-08-12 20:39:00,
2013-08-12 15:44:00,80.8,65.4,29.98,North,0,0.0,4.0,60,0.00,,CLR,0.00,VWS V14.01,2013-08-12 20:44:00,
2013-08-12 15:49:00,80.8,65.4,29.95,NNW,329,0.0,6.3,60,0.00,,CLR,0.00,VWS V14.01,2013-08-12 20:49:00,
2013-08-12 15:54:00,80.8,65.4,29.95,North,0,3.1,6.3,60,0.00,,CLR,0.00,VWS V14.01,2013-08-12 20:54:00,
2013-08-12 15:59:00,80.2,64.9,29.95,North,0,4.9,8.1,60,0.00,,CLR,0.00,VWS V14.01,2013-08-12 20:59:00,
2013-08-12 16:04:00,79.2,63.8,29.95,NNW,346,0.0,4.9,60,0.00,,SCT034,0.00,VWS V14.01,2013-08-12 21:04:00,
2013-08-12 16:09:00,78.4,64.8,29.95,WNW,288,0.0,0.0,63,0.00,,SCT034,0.00,VWS V14.01,2013-08-12 21:09:00,
2013-08-12 16:15:00,77.9,64.3,29.95,NNW,341,0.0,0.0,63,0.00,,SCT034,0.00,VWS V14.01,2013-08-12 21:15:00,
2013-08-12 16:20:00,77.4,63.8,29.95,North,9,0.0,3.6,63,0.00,,SCT034,0.00,VWS V14.01,2013-08-12 21:20:00,
2013-08-12 16:25:00,77.0,63.5,29.95,NNW,340,0.0,0.0,63,0.00,,BKN040,0.00,VWS V14.01,2013-08-12 21:25:00,
2013-08-12 16:30:00,76.5,66.0,29.95,WSW,245,0.0,0.0,70,0.00,,BKN040,0.00,VWS V14.01,2013-08-12 21:30:00,
2013-08-12 16:35:00,76.1,65.6,29.95,WSW,251,0.0,0.0,70,0.00,,BKN040,0.00,VWS V14.01,2013-08-12 21:35:00,
2013-08-12 16:40:00,75.9,66.8,29.95,SSW,213,0.0,0.0,74,0.00,,SCT036,0.00,VWS V14.01,2013-08-12 21:40:00,
2013-08-12 16:45:00,76.1,67.0,29.95,West,280,3.1,5.4,74,0.00,,SCT036,0.00,VWS V14.01,2013-08-12 21:45:00,
2013-08-12 16:50:00,76.5,67.4,29.95,WSW,254,0.0,0.0,74,0.00,,SCT036,0.00,VWS V14.01,2013-08-12 21:50:00,
2013-08-12 16:55:00,76.5,67.4,29.95,West,275,3.6,4.0,74,0.00,,SCT036,0.00,VWS V14.01,2013-08-12 21:55:00,
2013-08-12 17:00:00,76.8,67.7,29.95,West,274,0.0,0.0,74,0.00,,SCT037,0.00,VWS V14.01,2013-08-12 22:00:00,
2013-08-12 17:05:00,77.0,67.9,29.95,NW,319,0.0,3.6,74,0.00,,SCT037,0.00,VWS V14.01,2013-08-12 22:05:00,
2013-08-12 17:10:00,77.5,68.4,29.95,SW,232,0.0,0.0,74,0.00,,SCT037,0.00,VWS V14.01,2013-08-12 22:10:00,
2013-08-12 17:15:00,78.4,69.3,29.95,WSW,252,0.0,0.0,74,0.00,,SCT037,0.00,VWS V14.01,2013-08-12 22:15:00,
2013-08-12 17:21:00,79.3,68.7,29.95,NW,313,0.0,0.0,70,0.00,,SCT040,0.00,VWS V14.01,2013-08-12 22:21:00,
2013-08-12 17:26:00,80.2,69.6,29.95,NNW,336,3.6,5.4,70,0.00,,SCT040,0.00,VWS V14.01,2013-08-12 22:26:00,
2013-08-12 17:31:00,80.8,65.4,29.92,NNW,340,2.7,4.9,60,0.00,,SCT040,0.00,VWS V14.01,2013-08-12 22:31:00,
2013-08-12 17:36:00,81.0,65.5,29.92,NW,310,2.2,4.0,60,0.00,,SCT040,0.00,VWS V14.01,2013-08-12 22:36:00,
2013-08-12 17:41:00,80.4,65.0,29.92,SSW,211,0.0,3.1,60,0.00,,SCT060,0.00,VWS V14.01,2013-08-12 22:41:00,
2013-08-12 17:46:00,79.7,64.4,29.92,WNW,285,3.1,3.1,60,0.00,,SCT060,0.00,VWS V14.01,2013-08-12 22:46:00,
2013-08-12 17:51:00,79.3,64.0,29.92,WSW,239,0.0,0.0,60,0.00,,SCT060,0.00,VWS V14.01,2013-08-12 22:51:00,
2013-08-12 17:56:00,79.2,63.8,29.92,NNW,342,0.0,0.0,60,0.00,,SCT060,0.00,VWS V14.01,2013-08-12 22:56:00,
2013-08-12 18:01:00,79.0,63.7,29.95,West,263,0.0,4.0,60,0.00,,SCT060,0.00,VWS V14.01,2013-08-12 23:01:00,
2013-08-12 18:06:00,78.6,65.0,29.95,NW,315,0.0,0.0,63,0.00,,SCT060,0.00,VWS V14.01,2013-08-12 23:06:00,
2013-08-12 18:11:00,78.3,64.6,29.95,NE,53,0.0,0.0,63,0.00,,SCT060,0.00,VWS V14.01,2013-08-12 23:11:00,
2013-08-12 18:17:00,78.3,64.6,29.92,WNW,285,0.0,0.0,63,0.00,,SCT060,0.00,VWS V14.01,2013-08-12 23:17:00,
2013-08-12 18:22:00,78.4,64.8,29.92,West,281,0.0,5.4,63,0.00,,,0.00,VWS V14.01,2013-08-12 23:22:00,
2013-08-12 18:27:00,79.0,63.7,29.92,NW,312,2.7,3.1,60,0.00,,,0.00,VWS V14.01,2013-08-12 23:27:00,
2013-08-12 18:32:00,79.3,64.0,29.92,WNW,289,3.1,4.9,60,0.00,,,0.00,VWS V14.01,2013-08-12 23:32:00,
2013-08-12 18:37:00,79.3,64.0,29.92,West,260,0.0,5.8,60,0.00,,,0.00,VWS V14.01,2013-08-12 23:37:00,
2013-08-12 18:42:00,78.8,63.5,29.92,West,268,0.0,0.0,60,0.00,,,0.00,VWS V14.01,2013-08-12 23:42:00,
2013-08-12 18:47:00,78.1,64.5,29.95,WSW,253,0.0,0.0,63,0.00,,,0.00,VWS V14.01,2013-08-12 23:47:00,
2013-08-12 18:52:00,77.4,63.8,29.95,West,274,0.0,2.7,63,0.00,,,0.00,VWS V14.01,2013-08-12 23:52:00,
2013-08-12 18:57:00,77.0,63.5,29.95,South,176,0.0,0.0,63,0.00,,,0.00,VWS V14.01,2013-08-12 23:57:00,
2013-08-12 19:02:00,76.6,63.1,29.92,WSW,244,0.0,0.0,63,0.00,,OVC027,0.00,VWS V14.01,2013-08-13 00:02:00,
2013-08-12 19:07:00,76.5,62.9,29.92,West,268,0.0,0.0,63,0.00,,OVC027,0.00,VWS V14.01,2013-08-13 00:07:00,
2013-08-12 19:13:00,76.3,62.8,29.92,West,268,0.0,0.0,63,0.00,,OVC027,0.00,VWS V14.01,2013-08-13 00:13:00,
2013-08-12 19:18:00,76.1,62.6,29.92,WNW,293,0.0,0.0,63,0.00,,OVC027,0.00,VWS V14.01,2013-08-13 00:18:00,
2013-08-12 19:23:00,76.5,62.9,29.92,WNW,300,0.0,0.0,63,0.00,,BKN060,0.00,VWS V14.01,2013-08-13 00:23:00,
2013-08-12 19:28:00,76.3,62.8,29.92,WNW,284,0.0,0.0,63,0.00,,BKN060,0.00,VWS V14.01,2013-08-13 00:28:00,
2013-08-12 19:33:00,76.1,62.6,29.92,WNW,284,0.0,0.0,63,0.00,,BKN060,0.00,VWS V14.01,2013-08-13 00:33:00,
2013-08-12 19:38:00,75.7,62.3,29.92,WNW,284,0.0,0.0,63,0.00,,BKN060,0.00,VWS V14.01,2013-08-13 00:38:00,
2013-08-12 19:43:00,75.6,62.1,29.92,WNW,284,0.0,0.0,63,0.00,,BKN070,0.00,VWS V14.01,2013-08-13 00:43:00,
2013-08-12 19:48:00,75.2,61.8,29.92,WNW,284,0.0,0.0,63,0.00,,BKN070,0.00,VWS V14.01,2013-08-13 00:48:00,
2013-08-12 19:53:00,74.8,61.4,29.92,WNW,284,0.0,0.0,63,0.00,,BKN070,0.00,VWS V14.01,2013-08-13 00:53:00,
2013-08-12 19:59:00,74.7,61.2,29.92,WNW,284,0.0,0.0,63,0.00,,BKN070,0.00,VWS V14.01,2013-08-13 00:59:00,
2013-08-12 20:04:00,74.3,60.9,29.92,WNW,284,0.0,0.0,63,0.00,,OVC065,0.00,VWS V14.01,2013-08-13 01:04:00,
2013-08-12 20:09:00,73.9,60.6,29.92,WNW,284,0.0,0.0,63,0.00,,OVC065,0.00,VWS V14.01,2013-08-13 01:09:00,
2013-08-12 20:14:00,73.6,60.2,29.92,WNW,284,0.0,0.0,63,0.00,,OVC065,0.00,VWS V14.01,2013-08-13 01:14:00,
2013-08-12 20:19:00,73.4,60.0,29.92,WNW,284,0.0,0.0,63,0.00,,OVC065,0.00,VWS V14.01,2013-08-13 01:19:00,
2013-08-12 20:24:00,73.2,61.4,29.92,WNW,284,0.0,0.0,66,0.00,,OVC070,0.00,VWS V14.01,2013-08-13 01:24:00,
2013-08-12 20:29:00,73.0,61.2,29.92,WNW,284,0.0,0.0,66,0.00,,OVC070,0.00,VWS V14.01,2013-08-13 01:29:00,
2013-08-12 20:34:00,72.7,60.9,29.92,WNW,284,0.0,0.0,66,0.00,,OVC070,0.00,VWS V14.01,2013-08-13 01:34:00,
2013-08-12 20:39:00,72.5,60.7,29.92,WNW,284,0.0,0.0,66,0.00,,OVC070,0.00,VWS V14.01,2013-08-13 01:39:00,
2013-08-12 20:44:00,72.5,63.6,29.92,WNW,284,0.0,0.0,74,0.00,,OVC065,0.00,VWS V14.01,2013-08-13 01:44:00,
2013-08-12 20:49:00,72.3,63.4,29.95,WNW,284,0.0,0.0,74,0.00,,OVC065,0.00,VWS V14.01,2013-08-13 01:49:00,
2013-08-12 20:54:00,72.3,63.4,29.95,WNW,284,0.0,0.0,74,0.00,,OVC065,0.00,VWS V14.01,2013-08-13 01:54:00,
2013-08-12 20:59:00,72.1,63.2,29.95,WNW,284,0.0,0.0,74,0.00,,OVC065,0.00,VWS V14.01,2013-08-13 01:59:00,
2013-08-12 21:04:00,72.1,63.2,29.95,WNW,287,0.0,0.0,74,0.00,,BKN070,0.00,VWS V14.01,2013-08-13 02:04:00,
2013-08-12 21:10:00,72.0,64.4,29.95,WNW,288,0.0,0.0,77,0.00,,BKN070,0.00,VWS V14.01,2013-08-13 02:10:00,
2013-08-12 21:15:00,71.8,64.2,29.95,WNW,288,0.0,0.0,77,0.00,,BKN070,0.00,VWS V14.01,2013-08-13 02:15:00,
2013-08-12 21:20:00,71.6,64.0,29.95,WNW,288,0.0,0.0,77,0.00,,BKN070,0.00,VWS V14.01,2013-08-13 02:20:00,
2013-08-12 21:25:00,71.6,64.0,29.95,WNW,288,0.0,0.0,77,0.00,,BKN075,0.00,VWS V14.01,2013-08-13 02:25:00,
2013-08-12 21:30:00,71.4,63.8,29.95,WNW,288,0.0,0.0,77,0.00,,BKN075,0.00,VWS V14.01,2013-08-13 02:30:00,
2013-08-12 21:35:00,71.4,63.8,29.95,WNW,288,0.0,0.0,77,0.00,,BKN075,0.00,VWS V14.01,2013-08-13 02:35:00,
2013-08-12 21:40:00,71.2,63.7,29.95,WNW,288,0.0,0.0,77,0.00,,BKN075,0.00,VWS V14.01,2013-08-13 02:40:00,
2013-08-12 21:45:00,71.2,64.9,29.95,WNW,288,0.0,0.0,80,0.00,,BKN065,0.00,VWS V14.01,2013-08-13 02:45:00,
2013-08-12 21:50:00,71.1,64.8,29.95,NW,314,0.0,0.0,80,0.00,,BKN065,0.00,VWS V14.01,2013-08-13 02:50:00,
2013-08-12 21:55:00,71.1,64.8,29.95,NW,314,0.0,0.0,80,0.00,,BKN065,0.00,VWS V14.01,2013-08-13 02:55:00,
2013-08-12 22:00:00,70.9,64.6,29.95,NW,314,0.0,0.0,80,0.00,,BKN065,0.00,VWS V14.01,2013-08-13 03:00:00,
2013-08-12 22:05:00,70.7,64.4,29.95,NW,313,0.0,0.0,80,0.00,,BKN065,0.00,VWS V14.01,2013-08-13 03:05:00,
2013-08-12 22:10:00,70.7,64.4,29.95,WSW,255,0.0,0.0,80,0.00,,BKN065,0.00,VWS V14.01,2013-08-13 03:10:00,
2013-08-12 22:15:00,70.9,64.6,29.95,NNW,334,0.0,0.0,80,0.00,,BKN065,0.00,VWS V14.01,2013-08-13 03:15:00,
2013-08-12 22:20:00,70.7,64.4,29.95,WNW,299,0.0,0.0,80,0.00,,BKN065,0.00,VWS V14.01,2013-08-13 03:20:00,
2013-08-12 22:25:00,70.7,64.4,29.95,NNW,335,0.0,0.0,80,0.00,,SCT065,0.00,VWS V14.01,2013-08-13 03:25:00,
2013-08-12 22:30:00,70.7,64.4,29.95,NW,318,0.0,3.1,80,0.00,,SCT065,0.00,VWS V14.01,2013-08-13 03:30:00,
2013-08-12 22:35:00,70.7,63.1,29.95,NNE,15,0.0,0.0,77,0.00,,SCT065,0.00,VWS V14.01,2013-08-13 03:35:00,
2013-08-12 22:40:00,70.5,63.0,29.95,NNW,327,0.0,4.0,77,0.00,,SCT065,0.00,VWS V14.01,2013-08-13 03:40:00,
2013-08-12 22:45:00,70.7,63.1,29.95,North,8,7.6,7.6,77,0.00,,CLR,0.00,VWS V14.01,2013-08-13 03:45:00,
2013-08-12 22:52:00,71.1,63.5,29.95,NNW,344,5.8,5.8,77,0.00,,CLR,0.00,VWS V14.01,2013-08-13 03:52:00,
2013-08-12 22:58:00,71.1,59.3,29.95,North,353,3.1,8.1,66,0.00,,CLR,0.00,VWS V14.01,2013-08-13 03:58:00,
2013-08-12 23:01:00,71.1,59.3,29.95,NW,318,3.1,5.4,66,0.00,,CLR,0.00,VWS V14.01,2013-08-13 04:01:00,
2013-08-12 23:03:00,71.1,59.3,29.95,North,349,3.6,5.4,66,0.00,,CLR,0.00,VWS V14.01,2013-08-13 04:03:00,
2013-08-12 23:08:00,71.2,59.5,29.95,North,353,3.6,6.3,66,0.00,,CLR,0.00,VWS V14.01,2013-08-13 04:08:00,
2013-08-12 23:13:00,71.2,59.5,29.95,NNW,327,3.6,7.6,66,0.00,,CLR,0.00,VWS V14.01,2013-08-13 04:13:00,
2013-08-12 23:18:00,71.2,59.5,29.95,North,0,5.4,7.6,66,0.00,,CLR,0.00,VWS V14.01,2013-08-13 04:18:00,
2013-08-12 23:23:00,71.1,59.3,29.95,North,353,4.9,8.1,66,0.00,,CLR,0.00,VWS V14.01,2013-08-13 04:23:00,
2013-08-12 23:28:00,71.1,59.3,29.95,WNW,303,3.1,7.6,66,0.00,,CLR,0.00,VWS V14.01,2013-08-13 04:28:00,
2013-08-12 23:33:00,71.1,59.3,29.95,NNW,334,3.6,7.6,66,0.00,,CLR,0.00,VWS V14.01,2013-08-13 04:33:00,
2013-08-12 23:38:00,70.9,59.2,29.95,NE,35,5.8,7.2,66,0.00,,CLR,0.00,VWS V14.01,2013-08-13 04:38:00,
2013-08-12 23:43:00,70.9,59.2,29.95,North,353,4.9,8.1,66,0.00,,CLR,0.00,VWS V14.01,2013-08-13 04:43:00,
2013-08-12 23:48:00,70.7,59.0,29.95,NNW,344,4.9,8.7,66,0.00,,CLR,0.00,VWS V14.01,2013-08-13 04:48:00,
2013-08-12 23:54:00,70.7,59.0,29.95,North,353,4.0,5.8,66,0.00,,CLR,0.00,VWS V14.01,2013-08-13 04:54:00,
2013-08-12 23:59:00,70.7,59.0,29.95,North,5,3.6,11.0,66,0.00,,CLR,0.00,VWS V14.01,2013-08-13 04:59:00,